| time (UTC) | temp F | wind direction | speed MPH | gust MPH | rain 1hr in | rain 24hr in | rain mn in | humidity % | barometer mb |
| 20260503005528 | 76 | 159 | 3.0 | 6.0 | 0.00 | 0.09 | 0.00 | 71 | |
| 20260503004528 | 77 | 133 | 2.0 | 6.0 | 0.00 | 0.09 | 0.00 | 70 | |
| 20260503003528 | 77 | 136 | 2.0 | 5.0 | 0.00 | 0.09 | 0.00 | 69 | |
| 20260503002528 | 77 | 112 | 0.0 | 2.0 | 0.00 | 0.09 | 0.00 | 69 | |
| 20260503001528 | 78 | 175 | 3.0 | 6.0 | 0.00 | 0.09 | 0.00 | 69 | |
| 20260503000528 | 77 | 138 | 2.0 | 5.0 | 0.00 | 0.09 | 0.00 | 68 | |
| 20260502235528 | 76 | 136 | 2.0 | 6.0 | 0.00 | 0.09 | 0.00 | 71 | |
| 20260502234528 | 75 | 174 | 3.0 | 5.0 | 0.00 | 0.09 | 0.00 | 72 | |
| 20260502233528 | 74 | 152 | 3.0 | 6.0 | 0.00 | 0.09 | 0.00 | 73 | |
| 20260502232528 | 74 | 154 | 4.0 | 7.0 | 0.00 | 0.09 | 0.00 | 74 | |
| 20260502231528 | 73 | 159 | 2.0 | 6.0 | 0.00 | 0.09 | 0.00 | 75 | |
| 20260502230528 | 73 | 133 | 2.0 | 5.0 | 0.00 | 0.09 | 0.00 | 76 | |
| 20260502225528 | 71 | 139 | 2.0 | 4.0 | 0.00 | 0.09 | 0.00 | 77 | |
| 20260502224530 | 71 | 139 | 3.0 | 5.0 | 0.00 | 0.09 | 0.00 | 78 | |
| 20260502223528 | 70 | 167 | 1.0 | 4.0 | 0.00 | 0.09 | 0.00 | 79 | |
| 20260502222528 | 69 | 182 | 2.0 | 4.0 | 0.00 | 0.09 | 0.00 | 80 | |
| 20260502221528 | 68 | 138 | 2.0 | 3.0 | 0.00 | 0.09 | 0.00 | 82 | |
| 20260502220528 | 68 | 149 | 2.0 | 5.0 | 0.00 | 0.09 | 0.00 | 83 | |
| 20260502215528 | 67 | 137 | 1.0 | 3.0 | 0.00 | 0.09 | 0.00 | 84 | |
| 20260502214528 | 66 | 170 | 2.0 | 5.0 | 0.00 | 0.09 | 0.00 | 84 | |
| 20260502213528 | 66 | 142 | 2.0 | 4.0 | 0.00 | 0.09 | 0.00 | 85 | |
| 20260502212528 | 65 | 149 | 1.0 | 4.0 | 0.00 | 0.09 | 0.00 | 86 | |
| 20260502211528 | 64 | 159 | 1.0 | 2.0 | 0.00 | 0.09 | 0.00 | 87 | |
| 20260502210528 | 64 | 135 | 1.0 | 4.0 | 0.00 | 0.09 | 0.00 | 88 | |
| 20260502205528 | 64 | 158 | 0.0 | 2.0 | 0.00 | 0.09 | 0.00 | 88 | |
| 20260502204528 | 64 | 148 | 1.0 | 2.0 | 0.00 | 0.09 | 0.00 | 89 | |
| 20260502203528 | 64 | 158 | 0.0 | 2.0 | 0.00 | 0.09 | 0.00 | 88 | |
| 20260502202528 | 64 | 338 | 0.0 | 2.0 | 0.00 | 0.09 | 0.00 | 88 | |
| 20260502201528 | 64 | 325 | 1.0 | 4.0 | 0.00 | 0.09 | 0.00 | 88 | |
| 20260502200528 | 64 | 315 | 0.0 | 2.0 | 0.00 | 0.09 | 0.00 | 88 | |
| 20260502195528 | 64 | 22 | 0.0 | 2.0 | 0.00 | 0.09 | 0.00 | 88 | |
| 20260502194528 | 64 | 265 | 0.0 | 2.0 | 0.00 | 0.09 | 0.00 | 88 | |
| 20260502193528 | 64 | 331 | 0.0 | 1.0 | 0.00 | 0.09 | 0.00 | 88 | |
| 20260502192528 | 64 | 330 | 0.0 | 2.0 | 0.00 | 0.09 | 0.00 | 88 | |
| 20260502191528 | 64 | 326 | 0.0 | 4.0 | 0.00 | 0.09 | 0.00 | 88 | |
| 20260502190528 | 64 | 343 | 0.0 | 2.0 | 0.00 | 0.09 | 0.00 | 88 | |
| 20260502185528 | 64 | 0.0 | 0.0 | 0.00 | 0.09 | 0.00 | 89 | ||
| 20260502184528 | 64 | 324 | 0.0 | 1.0 | 0.00 | 0.13 | 0.00 | 88 | |
| 20260502183528 | 64 | 318 | 0.0 | 2.0 | 0.00 | 0.13 | 0.00 | 89 | |
| 20260502182528 | 64 | 315 | 0.0 | 2.0 | 0.00 | 0.13 | 0.00 | 89 | |
| 20260502181528 | 64 | 43 | 0.0 | 2.0 | 0.00 | 0.13 | 0.00 | 90 | |
| 20260502180528 | 64 | 344 | 0.0 | 2.0 | 0.00 | 0.13 | 0.00 | 90 | |
| 20260502163528 | 65 | 237 | 0.0 | 2.0 | 0.00 | 0.14 | 0.00 | 92 | |
| 20260502162528 | 65 | 315 | 0.0 | 2.0 | 0.00 | 0.14 | 0.00 | 92 | |
| 20260502161528 | 65 | 315 | 0.0 | 2.0 | 0.00 | 0.19 | 0.00 | 92 | |
| 20260502160528 | 65 | 338 | 0.0 | 2.0 | 0.00 | 0.19 | 0.00 | 93 | |
| 20260502151528 | 66 | 0.0 | 0.0 | 0.00 | 0.19 | 0.00 | 93 | ||
| 20260502150528 | 66 | 338 | 0.0 | 2.0 | 0.00 | 0.19 | 0.00 | 93 | |
| 20260502130528 | 67 | 202 | 0.0 | 2.0 | 0.00 | 0.19 | 0.19 | 96 | |
| 20260502123528 | 67 | 202 | 1.0 | 2.0 | 0.00 | 0.19 | 0.19 | 96 | |
| 20260502122528 | 67 | 0.0 | 0.0 | 0.00 | 0.19 | 0.19 | 96 | ||
| 20260502121528 | 67 | 202 | 0.0 | 2.0 | 0.00 | 0.19 | 0.19 | 96 | |
| 20260502120528 | 68 | 0.0 | 0.0 | 0.02 | 0.19 | 0.19 | 95 | ||
| 20260502115528 | 68 | 180 | 0.0 | 1.0 | 0.02 | 0.19 | 0.19 | 95 | |
| 20260502114528 | 68 | 135 | 1.0 | 3.0 | 0.02 | 0.19 | 0.19 | 94 | |
| 20260502113528 | 68 | 188 | 2.0 | 5.0 | 0.02 | 0.20 | 0.19 | 95 | |
| 20260502112528 | 67 | 158 | 1.0 | 3.0 | 0.02 | 0.22 | 0.19 | 95 | |
| 20260502111528 | 67 | 0.0 | 0.0 | 0.02 | 0.25 | 0.19 | 96 | ||
| 20260502110527 | 67 | 0.0 | 0.0 | 0.00 | 0.25 | 0.17 | 96 | ||
| 20260502105528 | 67 | 180 | 1.0 | 6.0 | 0.00 | 0.28 | 0.17 | 96 | |
| 20260502104527 | 67 | 0.0 | 0.0 | 0.00 | 0.30 | 0.17 | 96 | ||
| 20260502103528 | 67 | 0.0 | 0.0 | 0.00 | 0.30 | 0.17 | 96 | ||
| 20260502102528 | 67 | 0.0 | 0.0 | 0.00 | 0.30 | 0.17 | 95 | ||
| 20260502101528 | 67 | 0.0 | 0.0 | 0.00 | 0.30 | 0.17 | 96 | ||
| 20260502100528 | 68 | 0.0 | 0.0 | 0.00 | 0.30 | 0.17 | 95 | ||
| 20260502091528 | 69 | 180 | 0.0 | 2.0 | 0.00 | 0.30 | 0.17 | 92 | |
| 20260502090528 | 69 | 0.0 | 0.0 | 0.00 | 0.30 | 0.17 | 93 | ||
| 20260502071528 | 70 | 338 | 0.0 | 2.0 | 0.03 | 0.30 | 0.17 | 94 | |
| 20260502070528 | 71 | 202 | 0.0 | 1.0 | 0.03 | 0.30 | 0.17 | 93 | |
| 20260502065528 | 71 | 206 | 1.0 | 3.0 | 0.05 | 0.30 | 0.17 | 92 | |
| 20260502064528 | 71 | 202 | 0.0 | 1.0 | 0.02 | 0.27 | 0.14 | 91 | |
| 20260502063528 | 71 | 202 | 0.0 | 3.0 | 0.02 | 0.27 | 0.14 | 91 | |
| 20260502062528 | 71 | 148 | 1.0 | 5.0 | 0.05 | 0.27 | 0.14 | 91 | |
| 20260502061528 | 71 | 180 | 1.0 | 2.0 | 0.05 | 0.27 | 0.14 | 91 | |
| 20260502060528 | 72 | 183 | 2.0 | 4.0 | 0.05 | 0.27 | 0.14 | 89 | |
| 20260502055528 | 72 | 165 | 2.0 | 4.0 | 0.03 | 0.25 | 0.13 | 88 | |
| 20260502054528 | 72 | 147 | 2.0 | 5.0 | 0.03 | 0.25 | 0.13 | 89 | |
| 20260502053529 | 73 | 202 | 1.0 | 4.0 | 0.03 | 0.25 | 0.13 | 88 | |
| 20260502052528 | 74 | 176 | 2.0 | 5.0 | 0.00 | 0.22 | 0.09 | 84 | |
| 20260502051528 | 74 | 144 | 2.0 | 7.0 | 0.00 | 0.22 | 0.09 | 83 | |
| 20260502050527 | 74 | 142 | 2.0 | 6.0 | 0.00 | 0.22 | 0.09 | 81 | |
| 20260502045528 | 75 | 163 | 4.0 | 8.0 | 0.00 | 0.22 | 0.09 | 79 | |
| 20260502044528 | 76 | 147 | 6.0 | 13.0 | 0.00 | 0.22 | 0.09 | 75 | |
| 20260502043528 | 76 | 170 | 4.0 | 8.0 | 0.00 | 0.22 | 0.09 | 71 | |
| 20260502042528 | 77 | 168 | 5.0 | 11.0 | 0.00 | 0.22 | 0.09 | 71 | |
| 20260502041528 | 77 | 180 | 6.0 | 10.0 | 0.00 | 0.22 | 0.09 | 70 | |
| 20260502035528 | 77 | 164 | 3.0 | 7.0 | 0.00 | 0.22 | 0.09 | 73 | |
| 20260502034528 | 76 | 156 | 3.0 | 7.0 | 0.00 | 0.22 | 0.09 | 71 | |
| 20260502033527 | 77 | 161 | 5.0 | 9.0 | 0.00 | 0.22 | 0.09 | 73 | |
| 20260502032528 | 77 | 236 | 3.0 | 9.0 | 0.00 | 0.22 | 0.09 | 73 | |
| 20260502031528 | 76 | 198 | 2.0 | 7.0 | 0.00 | 0.22 | 0.09 | 72 | |
| 20260502030528 | 77 | 201 | 4.0 | 11.0 | 0.00 | 0.22 | 0.09 | 72 | |
| 20260502025528 | 77 | 187 | 4.0 | 11.0 | 0.00 | 0.22 | 0.09 | 70 | |
| 20260502024528 | 77 | 184 | 5.0 | 9.0 | 0.00 | 0.22 | 0.09 | 70 | |
| 20260502023528 | 77 | 213 | 3.0 | 8.0 | 0.00 | 0.22 | 0.09 | 70 | |
| 20260502022528 | 77 | 193 | 5.0 | 9.0 | 0.00 | 0.22 | 0.09 | 69 | |
| 20260502021528 | 77 | 209 | 3.0 | 9.0 | 0.00 | 0.22 | 0.09 | 72 | |
| 20260502020527 | 77 | 225 | 3.0 | 7.0 | 0.00 | 0.22 | 0.09 | 71 | |
| 20260502015528 | 76 | 184 | 4.0 | 11.0 | 0.00 | 0.22 | 0.09 | 73 | |
| 20260502014528 | 77 | 210 | 3.0 | 8.0 | 0.00 | 0.22 | 0.09 | 72 | |
| 20260502013528 | 78 | 209 | 3.0 | 11.0 | 0.00 | 0.22 | 0.09 | 69 | |
| 20260502012528 | 78 | 178 | 4.0 | 13.0 | 0.00 | 0.22 | 0.09 | 69 | |
| 20260502011528 | 77 | 183 | 5.0 | 12.0 | 0.00 | 0.22 | 0.09 | 70 | |
| 20260502010528 | 77 | 208 | 4.0 | 8.0 | 0.00 | 0.22 | 0.09 | 70 |